Time,TemperatureF,DewpointF,PressureIn,WindDirection,WindDirectionDegrees,WindSpeedMPH,WindSpeedGustMPH,Humidity,HourlyPrecipIn,Conditions,Clouds,dailyrainin,SoftwareType,DateUTC
2013-09-30 00:00:00,48.0,48.0,30.06,South,186,0.0,0.0,99,0.00,,,0.00,weatherlink.com 1.10,2013-09-30 04:00:00,
2013-09-30 00:15:00,48.0,48.0,30.05,South,186,0.0,0.0,99,0.00,,,0.00,weatherlink.com 1.10,2013-09-30 04:15:00,
2013-09-30 00:30:00,48.3,48.0,30.05,South,186,0.0,0.0,99,0.00,,,0.00,weatherlink.com 1.10,2013-09-30 04:30:00,
2013-09-30 00:45:00,48.4,48.0,30.05,South,186,0.0,0.0,99,0.00,,,0.00,weatherlink.com 1.10,2013-09-30 04:45:00,
2013-09-30 01:00:00,48.1,48.0,30.05,South,186,0.0,0.0,99,0.00,,,0.00,weatherlink.com 1.10,2013-09-30 05:00:00,
2013-09-30 01:15:00,47.5,47.0,30.05,South,186,0.0,0.0,99,0.00,,,0.00,weatherlink.com 1.10,2013-09-30 05:15:00,
2013-09-30 01:30:00,47.2,47.0,30.05,South,186,0.0,0.0,99,0.00,,,0.00,weatherlink.com 1.10,2013-09-30 05:30:00,
2013-09-30 01:45:00,46.8,47.0,30.05,South,186,0.0,0.0,99,0.00,,,0.00,weatherlink.com 1.10,2013-09-30 05:45:00,
2013-09-30 02:00:00,46.5,46.0,30.05,South,186,0.0,0.0,99,0.00,,,0.00,weatherlink.com 1.10,2013-09-30 06:00:00,
2013-09-30 02:15:00,46.3,46.0,30.05,South,186,0.0,0.0,99,0.00,,,0.00,weatherlink.com 1.10,2013-09-30 06:15:00,
2013-09-30 02:30:00,45.9,46.0,30.04,South,185,0.0,0.0,99,0.00,,,0.00,weatherlink.com 1.10,2013-09-30 06:30:00,
2013-09-30 02:45:00,45.6,45.0,30.04,South,186,0.0,0.0,99,0.00,,,0.00,weatherlink.com 1.10,2013-09-30 06:45:00,
2013-09-30 03:00:00,45.1,45.0,30.04,South,186,0.0,0.0,99,0.00,,,0.00,weatherlink.com 1.10,2013-09-30 07:00:00,
2013-09-30 03:15:00,44.9,45.0,30.04,South,185,0.0,0.0,99,0.00,,,0.00,weatherlink.com 1.10,2013-09-30 07:15:00,
2013-09-30 03:30:00,44.6,44.0,30.05,South,186,0.0,0.0,99,0.00,,,0.00,weatherlink.com 1.10,2013-09-30 07:30:00,
2013-09-30 03:45:00,44.4,44.0,30.05,South,186,0.0,0.0,99,0.00,,,0.00,weatherlink.com 1.10,2013-09-30 07:45:00,
2013-09-30 04:01:00,44.1,44.0,30.05,South,186,0.0,0.0,99,0.00,,,0.00,weatherlink.com 1.10,2013-09-30 08:01:00,
2013-09-30 04:16:00,43.9,44.0,30.05,South,186,0.0,0.0,99,0.00,,,0.00,weatherlink.com 1.10,2013-09-30 08:16:00,
2013-09-30 04:31:00,43.8,44.0,30.05,South,186,0.0,0.0,99,0.00,,,0.00,weatherlink.com 1.10,2013-09-30 08:31:00,
2013-09-30 04:46:00,43.7,44.0,30.04,South,186,0.0,0.0,99,0.00,,,0.00,weatherlink.com 1.10,2013-09-30 08:46:00,
2013-09-30 05:01:00,43.5,44.0,30.05,South,185,0.0,0.0,100,0.00,,,0.00,weatherlink.com 1.10,2013-09-30 09:01:00,
2013-09-30 05:16:00,43.2,43.0,30.05,South,186,0.0,0.0,99,0.00,,,0.00,weatherlink.com 1.10,2013-09-30 09:16:00,
2013-09-30 05:31:00,42.9,43.0,30.05,South,186,0.0,0.0,99,0.00,,,0.00,weatherlink.com 1.10,2013-09-30 09:31:00,
2013-09-30 05:46:00,43.1,43.0,30.06,South,186,0.0,0.0,100,0.00,,,0.00,weatherlink.com 1.10,2013-09-30 09:46:00,
2013-09-30 06:01:00,43.3,43.0,30.06,South,186,0.0,0.0,100,0.00,,,0.00,weatherlink.com 1.10,2013-09-30 10:01:00,
2013-09-30 06:17:00,43.6,44.0,30.06,South,185,0.0,0.0,100,0.00,,,0.00,weatherlink.com 1.10,2013-09-30 10:17:00,
2013-09-30 06:31:00,43.8,44.0,30.06,South,185,0.0,0.0,100,0.00,,,0.00,weatherlink.com 1.10,2013-09-30 10:31:00,
2013-09-30 06:46:00,43.8,44.0,30.06,South,186,0.0,0.0,100,0.00,,,0.00,weatherlink.com 1.10,2013-09-30 10:46:00,
2013-09-30 07:01:00,43.6,44.0,30.07,South,186,0.0,0.0,100,0.00,,,0.00,weatherlink.com 1.10,2013-09-30 11:01:00,
2013-09-30 07:16:00,43.6,44.0,30.07,South,186,0.0,0.0,100,0.00,,,0.00,weatherlink.com 1.10,2013-09-30 11:16:00,
2013-09-30 07:31:00,43.9,44.0,30.07,South,185,0.0,0.0,100,0.00,,,0.00,weatherlink.com 1.10,2013-09-30 11:31:00,
2013-09-30 07:46:00,44.6,45.0,30.08,South,185,0.0,0.0,100,0.00,,,0.00,weatherlink.com 1.10,2013-09-30 11:46:00,
2013-09-30 08:01:00,46.0,46.0,30.08,South,186,0.0,0.0,100,0.00,,,0.00,weatherlink.com 1.10,2013-09-30 12:01:00,
2013-09-30 08:16:00,47.3,47.0,30.07,South,186,0.0,0.0,100,0.00,,,0.00,weatherlink.com 1.10,2013-09-30 12:16:00,
2013-09-30 08:31:00,48.6,49.0,30.07,South,185,0.0,0.0,100,0.00,,,0.00,weatherlink.com 1.10,2013-09-30 12:31:00,
2013-09-30 08:46:00,50.2,50.0,30.07,South,186,0.0,0.0,100,0.00,,,0.00,weatherlink.com 1.10,2013-09-30 12:46:00,
2013-09-30 09:01:00,50.6,51.0,30.07,WNW,293,0.0,0.0,100,0.00,,,0.00,weatherlink.com 1.10,2013-09-30 13:01:00,
2013-09-30 09:16:00,51.1,51.0,30.07,WNW,293,0.0,0.0,100,0.00,,,0.00,weatherlink.com 1.10,2013-09-30 13:16:00,
2013-09-30 09:31:00,52.1,52.0,30.07,WNW,292,0.0,0.0,100,0.00,,,0.00,weatherlink.com 1.10,2013-09-30 13:31:00,
2013-09-30 09:46:00,53.0,53.0,30.07,WNW,286,0.0,0.0,100,0.00,,,0.00,weatherlink.com 1.10,2013-09-30 13:46:00,
2013-09-30 10:01:00,54.3,54.0,30.07,NW,311,0.0,0.0,100,0.00,,,0.00,weatherlink.com 1.10,2013-09-30 14:01:00,
2013-09-30 10:16:00,55.6,55.0,30.06,NNW,347,0.0,0.0,98,0.00,,,0.00,weatherlink.com 1.10,2013-09-30 14:16:00,
2013-09-30 10:31:00,57.1,56.0,30.05,North,359,0.0,0.0,95,0.00,,,0.00,weatherlink.com 1.10,2013-09-30 14:31:00,
2013-09-30 10:46:00,58.9,56.0,30.05,NW,315,0.0,2.0,91,0.00,,,0.00,weatherlink.com 1.10,2013-09-30 14:46:00,
2013-09-30 11:01:00,60.8,57.0,30.05,NNW,340,1.0,1.0,86,0.00,,,0.00,weatherlink.com 1.10,2013-09-30 15:01:00,
2013-09-30 11:16:00,62.2,57.0,30.04,North,360,2.0,2.0,84,0.00,,,0.00,weatherlink.com 1.10,2013-09-30 15:16:00,
2013-09-30 11:32:00,64.2,57.0,30.03,West,264,0.0,2.0,78,0.00,,,0.00,weatherlink.com 1.10,2013-09-30 15:32:00,
2013-09-30 11:47:00,65.6,58.0,30.02,WSW,245,0.0,2.0,76,0.00,,,0.00,weatherlink.com 1.10,2013-09-30 15:47:00,
2013-09-30 12:02:00,66.6,58.0,30.02,NE,45,1.0,1.0,74,0.00,,,0.00,weatherlink.com 1.10,2013-09-30 16:02:00,
2013-09-30 12:17:00,67.3,58.0,30.02,West,266,1.0,2.0,72,0.00,,,0.00,weatherlink.com 1.10,2013-09-30 16:17:00,
2013-09-30 12:32:00,68.8,59.0,30.01,SSW,194,0.0,2.0,72,0.00,,,0.00,weatherlink.com 1.10,2013-09-30 16:32:00,
2013-09-30 12:47:00,70.0,59.0,30.00,NW,311,0.0,2.0,68,0.00,,,0.00,weatherlink.com 1.10,2013-09-30 16:47:00,
2013-09-30 13:02:00,70.6,58.0,29.99,NNE,30,1.0,3.0,65,0.00,,,0.00,weatherlink.com 1.10,2013-09-30 17:02:00,
2013-09-30 13:17:00,72.2,58.0,29.99,West,281,0.0,1.0,62,0.00,,,0.00,weatherlink.com 1.10,2013-09-30 17:17:00,
2013-09-30 13:32:00,72.4,58.0,29.98,SSW,194,1.0,5.0,61,0.00,,,0.00,weatherlink.com 1.10,2013-09-30 17:32:00,
2013-09-30 13:47:00,73.2,57.0,29.98,NNW,343,0.0,2.0,57,0.00,,,0.00,weatherlink.com 1.10,2013-09-30 17:47:00,
2013-09-30 14:02:00,70.1,55.0,29.98,North,349,0.0,2.0,60,0.00,,,0.00,weatherlink.com 1.10,2013-09-30 18:02:00,
2013-09-30 14:17:00,70.2,57.0,29.97,NNW,345,0.0,1.0,63,0.00,,,0.00,weatherlink.com 1.10,2013-09-30 18:17:00,
2013-09-30 14:32:00,72.6,58.0,29.97,North,353,0.0,1.0,60,0.00,,,0.00,weatherlink.com 1.10,2013-09-30 18:32:00,
2013-09-30 14:47:00,75.2,57.0,29.96,NNW,347,0.0,1.0,54,0.00,,,0.00,weatherlink.com 1.10,2013-09-30 18:47:00,
2013-09-30 15:02:00,76.3,57.0,29.96,SSE,160,0.0,0.0,52,0.00,,,0.00,weatherlink.com 1.10,2013-09-30 19:02:00,
2013-09-30 15:17:00,75.0,56.0,29.96,SSE,168,1.0,2.0,52,0.00,,,0.00,weatherlink.com 1.10,2013-09-30 19:17:00,
2013-09-30 15:32:00,74.6,56.0,29.96,NE,42,2.0,3.0,53,0.00,,,0.00,weatherlink.com 1.10,2013-09-30 19:32:00,
2013-09-30 15:47:00,74.1,54.0,29.95,ENE,60,1.0,4.0,50,0.00,,,0.00,weatherlink.com 1.10,2013-09-30 19:47:00,
2013-09-30 16:02:00,74.9,58.0,29.95,SE,135,0.0,1.0,56,0.00,,,0.00,weatherlink.com 1.10,2013-09-30 20:02:00,
2013-09-30 16:17:00,73.2,54.0,29.95,NNW,348,0.0,1.0,51,0.00,,,0.00,weatherlink.com 1.10,2013-09-30 20:17:00,
2013-09-30 16:32:00,72.1,55.0,29.95,NNW,343,0.0,2.0,56,0.00,,,0.00,weatherlink.com 1.10,2013-09-30 20:32:00,
2013-09-30 16:47:00,71.1,55.0,29.94,SE,124,0.0,1.0,58,0.00,,,0.00,weatherlink.com 1.10,2013-09-30 20:47:00,
2013-09-30 17:02:00,69.6,56.0,29.94,SE,143,0.0,1.0,62,0.00,,,0.00,weatherlink.com 1.10,2013-09-30 21:02:00,
2013-09-30 17:17:00,68.9,57.0,29.94,SE,143,0.0,1.0,65,0.00,,,0.00,weatherlink.com 1.10,2013-09-30 21:17:00,
2013-09-30 17:33:00,70.6,58.0,29.94,SE,143,0.0,0.0,64,0.00,,,0.00,weatherlink.com 1.10,2013-09-30 21:33:00,
2013-09-30 17:48:00,71.1,58.0,29.94,SE,143,0.0,0.0,64,0.00,,,0.00,weatherlink.com 1.10,2013-09-30 21:48:00,
2013-09-30 18:03:00,67.5,58.0,29.94,SE,143,0.0,0.0,71,0.00,,,0.00,weatherlink.com 1.10,2013-09-30 22:03:00,
2013-09-30 18:18:00,63.9,57.0,29.94,SE,143,0.0,0.0,77,0.00,,,0.00,weatherlink.com 1.10,2013-09-30 22:18:00,
2013-09-30 18:33:00,60.8,55.0,29.94,SE,143,0.0,0.0,82,0.00,,,0.00,weatherlink.com 1.10,2013-09-30 22:33:00,
2013-09-30 18:48:00,58.3,55.0,29.94,SE,145,0.0,0.0,88,0.00,,,0.00,weatherlink.com 1.10,2013-09-30 22:48:00,
2013-09-30 19:03:00,56.6,54.0,29.94,SE,145,0.0,0.0,90,0.00,,,0.00,weatherlink.com 1.10,2013-09-30 23:03:00,
2013-09-30 19:18:00,55.1,53.0,29.94,SE,145,0.0,0.0,92,0.00,,,0.00,weatherlink.com 1.10,2013-09-30 23:18:00,
2013-09-30 19:33:00,54.0,52.0,29.95,SE,145,0.0,0.0,93,0.00,,,0.00,weatherlink.com 1.10,2013-09-30 23:33:00,
2013-09-30 19:48:00,53.3,52.0,29.95,SE,145,0.0,0.0,95,0.00,,,0.00,weatherlink.com 1.10,2013-09-30 23:48:00,
2013-09-30 20:03:00,52.5,51.0,29.95,SE,145,0.0,0.0,95,0.00,,,0.00,weatherlink.com 1.10,2013-10-01 00:03:00,
2013-09-30 20:18:00,51.9,51.0,29.95,SE,145,0.0,0.0,96,0.00,,,0.00,weatherlink.com 1.10,2013-10-01 00:18:00,
2013-09-30 20:33:00,51.5,50.0,29.95,SE,145,0.0,0.0,96,0.00,,,0.00,weatherlink.com 1.10,2013-10-01 00:33:00,
2013-09-30 20:48:00,51.0,50.0,29.96,SE,145,0.0,0.0,96,0.00,,,0.00,weatherlink.com 1.10,2013-10-01 00:48:00,
2013-09-30 21:03:00,50.6,50.0,29.96,SE,145,0.0,0.0,97,0.00,,,0.00,weatherlink.com 1.10,2013-10-01 01:03:00,
2013-09-30 21:18:00,50.1,49.0,29.96,SE,145,0.0,0.0,97,0.00,,,0.00,weatherlink.com 1.10,2013-10-01 01:18:00,
2013-09-30 21:33:00,49.8,49.0,29.96,SE,145,0.0,0.0,97,0.00,,,0.00,weatherlink.com 1.10,2013-10-01 01:33:00,
2013-09-30 21:48:00,49.7,49.0,29.96,SE,145,0.0,0.0,98,0.00,,,0.00,weatherlink.com 1.10,2013-10-01 01:48:00,
2013-09-30 22:03:00,49.4,49.0,29.96,SE,146,0.0,0.0,98,0.00,,,0.00,weatherlink.com 1.10,2013-10-01 02:03:00,
2013-09-30 22:18:00,49.0,49.0,29.96,SE,145,0.0,0.0,98,0.00,,,0.00,weatherlink.com 1.10,2013-10-01 02:18:00,
2013-09-30 22:33:00,48.7,48.0,29.96,SE,145,0.0,0.0,98,0.00,,,0.00,weatherlink.com 1.10,2013-10-01 02:33:00,
2013-09-30 22:48:00,48.4,48.0,29.96,SE,145,0.0,0.0,98,0.00,,,0.00,weatherlink.com 1.10,2013-10-01 02:48:00,
2013-09-30 23:03:00,48.1,48.0,29.96,SE,145,0.0,0.0,98,0.00,,,0.00,weatherlink.com 1.10,2013-10-01 03:03:00,
2013-09-30 23:18:00,47.9,48.0,29.96,SE,145,0.0,0.0,99,0.00,,,0.00,weatherlink.com 1.10,2013-10-01 03:18:00,
2013-09-30 23:33:00,47.7,48.0,29.96,SE,146,0.0,0.0,99,0.00,,,0.00,weatherlink.com 1.10,2013-10-01 03:33:00,
2013-09-30 23:48:00,47.4,47.0,29.95,SE,145,0.0,0.0,98,0.00,,,0.00,weatherlink.com 1.10,2013-10-01 03:48:00,